DELTA 1 DEB, 12225

Orbit data source: Space-Track

DELTA 1 DEB, 12225 is space debris in SSO originally from a launch on Sun, 05 Mar 1978 UTC launched from the Air Force Western Test Range (AFWTR). Debris objects in space refer to the collection of defunct objects orbiting the Earth. Examples of debris include non-operational satellites, rocket bodies, and fragments generated from explosions, collisions, or faulty payload assembly.

Loading next visibility...
Identifier
12225, 1978-026BS
Orbit
SSO
Country
Flag of USUS
Related business
Manufacturer
Unknown
Mission
Spacecraft
Bus & Motor
Unknown
Mass
Unknown
Launch date (UTC)
1978-03-05 (48 years ago)
Launch vehicle
Unknown
Launch site
Air Force Western Test Range (AFWTR)
Object type
Payload
Rocket body
Debris
Shape & HBR
Unknown shape, 0.1 m
Radar Cross Section
Medium (>0.1 m² and <1 m²)

Expand to show TLE details & history
Last TLE update: 3 days ago

TLE from 3 days ago
0 DELTA 1 DEB
1 12225U 78026BS  26171.30806593  .00000347  00000-0  22520-3 0  9994
2 12225  99.1410  99.8211 0035353 279.8575 232.5971 14.09177688320690
Epoch: 2026-06-20T07:23Z
TLE epoch observation values (Epoch: 2026-06-20T07:23:36.896Z)
Latitude
27.52329°
Longitude
-94.82282°
Altitude
881.136 km
Speed
7.406 km/s
True Right ascension
18h 58m 25s
True Declination
27° 23' 06"
Sunlit
Object was in full shadow at epoch
Visualization orbit readout
Latitude
Unknown
Longitude
Unknown
Altitude
Unknown
Speed
Unknown
Apparent Right ascension
Unknown
Apparent Declination
Unknown
Sunlit
N/A
Visualization observer readout
Local Sidereal Time
06:36:03
Azimuth
Unknown
Elevation
Unknown
Doppler factor
Unknown
Orbital elements
Apogee altitude
884.968 km
Perigee altitude
833.794 km
Semi-major axis
7,237.518 km
Eccentricity
0.00354
Inclination
99.141°
RAAN
99.8211°
Arg. of periapsis
279.8575°
True anomaly
232.27615°
Mean anomaly
232.5971°
Eccentric anomaly
232.43654°
Mean motion
3.525 °/min
Orbital period
102.13 mins
BSTAR
0.0002252
Loading maneuver chart data...
Computing Atmospheric mass density...

Documentation

Showing up to 5 results
|